SCP
0 0 0 0 0 0 0 0 0 0 0 1 2 4 5 7 7 8 7 6 4 3 3 3 5 7 8 7 5 4 3 3 3 3 3 3 3 3 3 3 3 3 3 3
0 0 0 0 0 0 0 0 0 0 0 1 3 4 6 7 7 7 6 5 4 3 3 3 6 8 8 8 6 4 3 3 3 3 3 3 3 4 4 4 3 3 4 4
0 0 0 0 0 0 0 0 0 0 0 1 3 5 6 7 7 5 4 3 3 2 3 4 6 8 8 8 7 5 4 3 4 4 3 3 4 5 5 5 5 5 4 4
0 0 0 0 0 0 0 0 0 0 1 2 4 5 6 6 5 3 2 2 2 2 3 4 6 7 8 8 7 6 4 4 4 5 4 4 4 6 7 7 7 7 6 5
0 0 0 0 0 0 0 1 1 1 2 4 5 6 5 4 3 2 2 2 2 2 3 4 6 7 7 8 8 6 4 4 5 5 4 3 3 5 7 8 8 9 8 6
0 0 0 0 0 0 0 1 1 2 3 4 5 5 4 2 1 2 2 2 2 2 3 4 6 7 7 8 8 6 4 4 4 4 4 3 2 3 5 7 8 8 7 5
0 0 0 0 0 0 0 1 2 3 4 4 4 3 2 2 2 2 2 2 2 2 3 4 6 8 8 8 7 6 5 4 4 5 4 3 3 3 4 5 6 6 5 4
0 0 0 0 0 0 0 1 2 3 3 3 2 2 3 3 3 3 3 3 2 2 3 5 7 9 9 8 8 7 6 4 4 4 5 5 4 4 4 4 4 4 4 4
0 0 0 0 0 0 0 1 2 3 3 2 2 3 3 4 4 4 3 3 2 3 4 6 8 9 9 9 9 8 7 5 4 4 4 5 5 5 5 4 4 4 4 4
1 1 1 1 1 1 1 1 2 2 2 1 2 3 4 4 4 3 3 3 4 4 6 8 9 10 10 10 10 9 7 6 5 4 4 4 4 5 5 4 4 4 4 4
1 1 1 1 1 1 1 1 2 2 2 2 2 3 4 4 4 3 3 4 5 7 8 9 10 10 9 9 9 9 7 7 6 5 5 4 4 4 4 5 5 5 5 5
1 1 1 1 1 1 1 1 2 2 3 3 3 4 5 5 4 4 4 4 6 7 8 8 8 7 7 8 8 8 7 6 6 5 4 4 4 4 5 5 4 4 4 5
1 1 2 1 1 0 0 1 2 3 4 5 5 5 5 5 5 4 4 5 5 5 5 5 5 5 5 6 7 7 6 5 4 4 3 4 5 6 7 6 5 4 4 4
2 2 2 1 1 0 0 1 2 3 5 6 6 6 5 5 5 5 5 5 5 4 4 4 4 4 5 5 5 5 4 4 4 3 3 3 5 7 9 9 8 7 5 4
3 2 2 1 1 1 1 2 3 4 5 6 6 5 5 5 4 5 6 6 5 5 5 5 4 4 4 4 4 4 3 3 4 4 4 3 5 8 10 12 11 10 8 7
2 2 2 2 2 2 2 3 4 4 5 5 5 5 4 4 4 4 5 5 4 4 5 5 5 4 3 3 3 3 3 4 5 6 5 4 5 8 10 12 13 12 11 9
3 2 3 3 3 3 3 3 4 4 4 4 4 4 4 3 3 3 3 2 2 3 3 4 4 4 3 3 3 3 4 4 5 7 6 5 6 8 11 12 13 13 11 9
4 4 4 4 4 4 3 4 4 4 4 4 4 3 3 2 2 1 1 1 1 2 2 2 3 3 3 3 3 4 5 5 6 7 7 6 6 9 12 13 13 12 8 5
5 5 4 4 4 3 3 3 3 3 3 3 3 2 2 1 1 1 1 1 1 1 2 2 2 3 3 3 3 5 5 6 7 8 9 7 7 9 10 11 10 8 5 3
3 3 3 2 2 2 2 2 2 2 2 2 2 2 2 1 1 1 1 1 1 1 2 2 3 3 3 2 3 5 6 6 7 9 10 9 7 6 6 5 4 3 2 1
1 1 1 1 1 1 1 1 1 2 3 3 3 2 1 1 0 0 1 1 1 1 2 3 4 3 2 2 3 5 7 7 8 9 10 9 6 4 2 1 1 1 1 1
1 2 2 1 1 1 1 2 3 3 4 3 2 1 1 0 0 0 0 1 1 2 3 3 3 2 1 1 3 6 7 8 9 9 9 8 5 3 2 1 0 0 1 1
2 2 2 2 1 1 2 3 3 3 3 2 1 0 0 0 1 1 1 1 1 2 2 2 1 0 0 1 2 5 7 7 8 8 7 6 4 3 2 1 1 1 1 2
1 2 2 2 1 1 1 1 2 2 1 1 0 0 1 1 2 2 2 1 1 1 1 1 0 0 0 0 1 3 4 5 5 5 5 4 3 4 4 2 1 1 2 2
1 1 2 2 2 1 0 0 0 0 0 0 0 0 1 2 2 2 1 1 0 0 0 0 0 0 0 0 0 1 2 2 3 2 2 2 2 3 3 3 2 1 2 2
0 0 1 2 1 1 0 0 0 0 0 0 0 0 0 1 1 1 0 0 0 0 0 0 0 0 0 0 0 0 0 1 1 1 1 1 1 1 2 2 1 1 1 1
0 0 0 1 1 1 0 0 0 0 0 0 0 0 0 0 0 0 0 0 0 0 0 0 0 0 0 0 0 0 0 0 0 1 0 0 0 1 1 1 1 1 1 0
Wind_Speed
4 3 3 3 4 5 5 7 8 8 7 8 6 5 3 2 2 2 2 2 3 3 4 4 5 5 5 5 4 5 5 5 4 4 3 3 3 2 2 2 2 1 1 1
1 1 3 3 3 5 4 4 4 3 6 6 3 1 1 2 4 3 4 3 3 3 3 4 5 5 5 5 5 5 6 5 4 4 3 3 3 3 3 2 1 1 1 1
2 2 1 3 4 5 3 3 5 5 6 3 1 3 4 4 4 5 5 4 4 4 4 4 5 5 6 6 5 6 6 5 5 5 5 4 4 3 3 2 2 2 1 1
2 2 5 7 2 3 4 1 2 2 3 3 4 3 2 3 4 4 3 3 3 3 3 3 3 4 4 5 5 6 6 5 5 5 5 4 4 3 3 2 2 2 1 1
4 3 4 4 1 3 4 2 1 2 2 2 0 2 2 1 2 4 4 4 3 3 3 3 3 4 5 4 5 5 6 6 6 6 5 4 4 4 3 3 2 2 1 1
4 4 6 6 3 2 4 3 2 2 2 1 3 1 4 2 2 2 2 2 2 2 2 3 3 4 5 4 5 5 6 6 5 5 6 5 5 4 3 3 3 2 1 1
3 3 6 5 5 1 4 6 3 3 3 2 3 4 4 3 2 2 2 2 2 2 3 3 4 5 5 4 5 5 4 4 4 5 5 5 4 3 3 2 2 2 1 1
3 3 7 4 2 3 5 2 1 2 3 3 3 2 2 2 2 1 1 1 1 2 1 2 4 5 4 5 4 4 4 4 4 4 4 4 4 4 3 3 3 2 2 2
6 7 5 2 2 3 2 1 2 2 2 2 1 2 2 2 2 1 0 0 1 2 1 1 3 4 5 4 3 4 4 4 4 4 3 3 4 4 3 3 3 3 3 3
1 4 4 4 2 1 1 2 3 3 3 3 2 2 1 2 2 1 0 1 1 2 2 2 2 3 3 3 4 5 5 4 4 3 3 3 3 3 3 3 3 3 3 3
2 3 4 5 3 3 2 2 2 2 2 3 2 2 2 2 2 1 0 0 0 1 2 2 2 2 2 3 5 5 5 4 4 4 4 3 3 3 4 4 5 4 4 3
5 5 4 5 5 4 3 3 3 2 3 2 2 3 3 2 2 1 0 0 0 0 1 1 1 2 2 3 4 4 4 4 4 3 3 3 3 2 2 4 5 6 6 5
5 4 5 6 6 4 3 4 4 4 4 3 2 3 3 2 2 1 1 2 2 1 1 1 1 2 2 3 4 4 4 4 4 4 4 4 4 4 3 2 3 5 6 6
4 3 4 5 6 6 5 5 4 3 3 2 2 2 2 1 2 2 3 3 2 2 1 1 1 2 2 2 3 4 4 4 4 4 4 4 4 4 4 3 3 2 3 5
5 4 6 6 6 5 4 3 2 3 2 2 1 2 2 2 3 3 3 2 2 2 1 1 1 2 2 2 3 3 3 3 3 3 3 4 4 4 4 4 4 3 1 2
5 4 5 5 5 5 4 4 4 4 4 3 2 3 3 3 3 2 2 2 3 3 2 2 2 3 2 3 4 3 3 4 4 3 3 3 4 4 4 4 5 4 4 3
4 5 5 5 5 5 5 5 5 4 4 4 4 3 3 2 2 2 2 2 2 3 3 3 3 3 3 4 4 3 3 3 5 3 4 4 4 5 5 5 5 5 4 4
7 8 7 7 6 6 6 5 4 4 4 4 3 3 3 4 4 4 2 1 1 2 3 3 3 3 3 3 3 3 3 3 3 4 4 4 4 4 4 5 5 5 4 3
5 6 6 6 5 5 5 5 4 4 3 3 2 3 3 4 4 3 2 2 2 3 4 3 3 3 2 3 3 2 3 3 3 3 4 4 5 4 4 5 5 5 4 3
4 3 4 4 3 3 3 3 2 2 2 2 2 2 2 2 2 3 3 3 4 4 3 3 3 3 3 2 2 2 3 3 3 3 3 3 4 4 4 4 4 4 4 4
3 3 3 2 2 2 2 2 1 2 2 2 2 2 2 2 1 1 2 2 3 2 2 2 2 2 2 2 3 2 3 3 3 3 3 3 3 3 3 3 4 4 4 3
3 2 1 1 1 2 2 1 0 0 1 1 1 1 1 1 1 0 1 2 2 1 0 0 1 1 1 1 1 2 2 3 3 3 3 3 3 3 3 3 3 3 3 3
2 1 1 1 1 1 2 2 2 1 1 1 1 1 1 1 1 1 1 2 1 1 0 0 1 1 1 0 1 1 2 2 2 2 2 3 3 3 3 4 3 3 3 3
2 2 1 1 2 3 2 2 2 1 1 1 0 1 1 1 1 1 1 1 1 1 0 0 1 1 1 1 0 0 1 1 1 1 2 2 3 3 3 3 3 3 3 3
2 1 2 2 2 1 1 2 2 2 2 1 2 1 1 1 1 1 1 1 1 1 1 1 2 1 1 1 0 1 1 1 1 1 1 1 2 3 2 2 2 2 2 2
2 1 1 0 0 1 1 0 1 2 2 2 2 2 2 1 1 1 1 1 1 1 1 1 1 1 1 0 1 1 1 1 1 1 1 1 1 1 2 2 2 2 2 2
2 1 1 2 1 1 0 0 0 1 1 1 2 2 2 1 1 1 1 1 1 1 1 1 1 1 1 1 1 1 1 1 1 1 1 1 1 0 0 1 1 1 1 1
Wind_Direction
214 217 184 186 183 173 168 176 179 216 219 247 241 233 229 189 164 139 141 159 180 186 191 181 171 174 173 171 169 168 167 182 195 192 183 171 167 165 158 159 175 171 172 201
260 243 200 208 201 186 196 184 197 203 246 260 259 197 198 169 165 180 196 196 198 189 178 183 180 180 175 172 171 164 169 188 184 169 169 173 178 167 156 158 163 152 178 212
222 286 85 246 217 184 186 188 168 198 238 273 247 205 208 201 192 201 210 210 206 202 194 195 192 182 181 176 171 169 177 182 176 168 174 183 178 161 168 177 167 169 208 220
140 115 210 238 231 162 153 182 194 223 262 239 222 227 218 187 191 219 231 228 222 207 197 188 171 168 168 162 169 175 179 183 181 173 172 171 165 176 187 186 182 192 204 220
131 170 254 287 244 165 165 236 223 219 269 296 24 68 334 248 209 224 233 232 219 203 194 173 165 163 150 156 168 178 188 190 187 179 176 172 177 189 190 181 190 196 192 207
135 159 215 239 275 260 139 243 255 190 202 186 90 115 266 291 276 267 263 232 202 177 163 162 170 153 154 171 177 194 200 198 189 181 180 184 189 187 183 182 194 186 185 216
158 197 252 260 296 41 162 231 250 203 200 180 187 214 248 287 286 260 255 241 190 154 163 182 164 151 168 182 199 203 190 183 182 182 185 181 179 174 166 170 166 165 189 231
153 183 249 290 62 158 215 250 219 203 199 190 226 261 283 286 278 274 309 315 168 152 175 177 160 161 179 203 202 174 167 171 178 181 184 174 168 166 161 163 164 184 206 243
185 208 244 262 211 223 185 215 248 217 233 194 216 273 300 303 293 279 203 200 190 166 180 177 171 174 192 208 171 162 163 174 179 177 179 170 171 170 166 172 186 202 211 233
231 267 275 287 291 304 222 224 259 246 220 187 206 236 283 295 287 290 271 190 172 160 177 214 205 203 207 180 161 163 173 180 173 172 179 175 180 177 180 191 202 208 215 229
241 274 319 314 306 306 325 335 326 299 252 215 196 223 228 246 259 267 288 319 175 189 200 222 205 205 200 173 162 169 176 182 179 178 177 182 189 195 199 207 206 205 216 218
222 224 212 261 280 288 301 306 302 298 301 276 216 227 240 244 244 214 204 167 145 244 237 248 202 200 193 173 166 170 184 183 182 182 182 185 191 203 212 214 215 218 222 221
229 244 243 265 278 275 263 274 277 270 254 254 255 217 212 235 241 205 198 193 190 207 229 264 226 221 211 180 170 179 196 191 183 184 185 190 196 199 214 230 218 219 222 226
239 246 270 271 270 278 273 276 282 283 265 238 229 220 218 244 251 232 232 224 200 194 192 223 223 241 240 191 183 191 197 195 188 188 191 196 201 203 203 208 224 244 230 227
263 242 243 266 278 284 283 279 272 270 262 253 214 214 220 231 241 245 244 220 188 195 213 228 233 247 235 204 201 209 207 205 196 191 192 198 201 202 205 209 215 225 230 228
274 276 262 267 274 283 288 271 249 249 246 236 226 230 231 233 241 243 232 199 184 208 222 220 237 238 210 208 210 212 218 210 202 200 203 204 204 206 208 212 216 219 223 218
258 265 258 259 264 272 271 263 251 246 245 233 226 220 209 210 232 241 242 225 211 215 222 218 232 235 207 207 208 209 212 210 204 201 210 213 212 213 214 216 220 223 228 218
240 241 240 242 253 266 273 269 255 246 246 242 220 198 196 203 218 234 237 238 264 274 254 237 233 240 229 212 202 202 202 204 206 212 214 217 222 222 221 220 222 225 229 221
261 256 257 258 255 253 258 254 247 242 246 239 213 209 216 222 221 226 221 211 231 254 260 240 231 231 234 221 200 192 198 201 206 216 216 218 221 224 224 224 223 222 220 219
296 286 276 272 277 269 260 260 250 240 235 214 206 209 229 244 227 215 206 224 234 234 232 229 225 222 217 209 196 203 203 206 209 213 213 213 219 225 225 225 224 220 215 216
299 294 289 291 309 306 287 257 222 225 225 193 195 219 236 255 236 182 182 253 278 256 220 209 218 228 221 208 200 209 213 215 210 210 211 211 214 218 225 226 221 218 217 217
302 281 282 322 345 340 345 347 351 182 173 165 171 186 179 226 223 211 244 245 270 274 193 200 229 228 229 217 206 211 214 218 217 211 210 210 215 223 230 228 222 224 224 221
314 317 340 354 13 11 4 12 21 48 78 129 156 180 222 258 247 187 283 289 281 271 298 352 343 21 40 132 190 214 228 228 219 215 218 220 225 226 229 229 226 225 221 222
341 358 2 13 62 57 22 353 0 12 19 2 229 189 188 225 303 285 250 288 296 287 316 351 40 50 70 85 116 222 241 238 231 229 230 231 233 229 226 225 224 219 214 215
344 359 32 47 51 22 328 349 7 10 10 352 343 328 280 215 218 262 304 333 337 334 359 18 34 37 44 33 349 266 262 258 251 237 234 244 246 237 223 210 208 209 210 213
347 342 322 304 166 219 267 14 16 355 353 349 338 331 339 346 351 348 356 359 3 356 354 18 33 35 37 6 304 292 291 292 279 258 259 262 271 246 205 195 199 208 214 216
354 357 356 357 1 5 55 98 89 318 312 299 304 317 331 343 355 3 18 32 25 11 2 13 29 21 7 346 334 336 326 304 291 279 272 270 284 306 128 171 184 205 213 216